EW5417 Weather Reports


Display with metric or nautical units.
time (UTC)temp
F
wind
direction
speed
MPH
gust
MPH
rain 1hr
in
rain 24hr
in
rain mn
in
humidity
%
barometer
mb
20171215063000 68 73 0.0 2.0 0.00 0.00 0.00 75 1012.7
20171215062100 68 30 0.0 2.0 0.00 0.00 0.00 74 1012.7
20171215061200 68 120 0.0 2.0 0.00 0.00 0.00 73 1012.7
20171215060300 69 99 1.0 1.0 0.00 0.00 0.00 73 1012.7
20171215055400 69 133 0.0 3.0 0.00 0.00 0.00 71 1012.7
20171215054500 69 153 3.0 4.0 0.00 0.00 0.00 72 1012.7
20171215053600 69 158 0.0 2.0 0.00 0.00 0.00 73 1012.7
20171215052700 69 112 1.0 3.0 0.00 0.00 0.00 73 1012.7
20171215051800 69 121 2.0 2.0 0.00 0.00 0.00 73 1012.7
20171215050900 69 131 0.0 2.0 0.00 0.00 0.00 72 1013.8
20171215050000 69 102 1.0 1.0 0.00 0.00 0.00 73 1013.8
20171215045100 69 45 0.0 3.0 0.00 0.00 0.00 73 1013.8
20171215044200 69 0 0.0 0.0 0.00 0.00 0.00 72 1013.8
20171215043300 70 0 0.0 0.0 0.00 0.00 0.00 71 1013.8
20171215042400 70 0 0.0 0.0 0.00 0.00 0.00 72 1013.8
20171215041500 71 90 0.0 2.0 0.00 0.00 0.00 73 1013.8
20171215040600 71 0 0.0 0.0 0.00 0.00 0.00 73 1013.8
20171215035701 70 56 0.0 2.0 0.00 0.00 0.00 73 1013.8
20171215034800 71 64 0.0 2.0 0.00 0.00 0.00 74 1013.8
20171215033901 71 59 1.0 2.0 0.00 0.00 0.00 74 1014.9
20171215033000 72 131 2.0 3.0 0.00 0.00 0.00 75 1014.9
20171215032100 72 154 1.0 5.0 0.00 0.00 0.00 77 1014.9
20171215031201 72 158 2.0 3.0 0.00 0.00 0.00 79 1014.9
20171215030300 72 0 0.0 0.0 0.00 0.00 0.00 76 1014.9
20171215025401 73 125 0.0 2.0 0.00 0.00 0.00 76 1014.9
20171215024501 73 108 1.0 3.0 0.00 0.00 0.00 76 1014.9
20171215023601 73 95 2.0 3.0 0.00 0.00 0.00 76 1014.9
20171215022700 74 151 0.0 3.0 0.00 0.00 0.00 77 1014.9
20171215021801 74 152 2.0 4.0 0.00 0.00 0.00 77 1015.9
20171215020901 74 153 4.0 5.0 0.00 0.00 0.00 78 1015.9
20171215020000 75 147 0.0 3.0 0.00 0.00 0.00 77 1015.9
20171215015101 75 138 3.0 6.0 0.00 0.00 0.00 76 1015.9
20171215014201 76 125 1.0 8.0 0.00 0.00 0.00 76 1015.9
20171215013301 76 153 4.0 13.0 0.00 0.00 0.00 76 1015.9
20171215012401 76 138 9.0 12.0 0.00 0.00 0.00 76 1015.9
20171215011501 76 162 9.0 13.0 0.00 0.00 0.00 75 1015.9
20171215010601 77 159 11.0 11.0 0.00 0.00 0.00 72 1014.9
20171215005701 77 152 6.0 10.0 0.00 0.00 0.00 71 1014.9
20171215004801 78 134 4.0 9.0 0.00 0.00 0.00 70 1014.9
20171215003901 78 139 6.0 9.0 0.00 0.00 0.00 69 1014.9
20171215003001 78 130 9.0 9.0 0.00 0.00 0.00 68 1014.9
20171215002100 79 117 4.0 10.0 0.00 0.00 0.00 68 1014.9
20171215001201 79 117 4.0 6.0 0.00 0.00 0.00 67 1014.9
20171215000301 79 129 2.0 7.0 0.00 0.00 0.00 66 1014.9
20171214235401 79 100 4.0 6.0 0.00 0.00 0.00 66 1014.9
20171214234501 80 113 3.0 5.0 0.00 0.00 0.00 64 1014.9
20171214233601 81 120 4.0 5.0 0.00 0.00 0.00 61 1013.8
20171214232701 81 131 4.0 8.0 0.00 0.00 0.00 57 1013.8
20171214231801 82 157 5.0 11.0 0.00 0.00 0.00 55 1013.8
20171214230901 82 129 2.0 8.0 0.00 0.00 0.00 49 1013.8
20171214230001 83 115 5.0 6.0 0.00 0.00 0.00 45 1013.8
20171214225101 83 144 5.0 11.0 0.00 0.00 0.00 44 1013.8
20171214224201 84 159 8.0 9.0 0.00 0.00 0.00 43 1013.8
20171214223301 85 156 9.0 9.0 0.00 0.00 0.00 39 1012.7
20171214222401 85 173 1.0 2.0 0.00 0.00 0.00 37 1012.7
20171214221501 85 199 0.0 2.0 0.00 0.00 0.00 36 1012.7
20171214220601 85 206 1.0 3.0 0.00 0.00 0.00 35 1012.7
20171214215701 86 201 2.0 3.0 0.00 0.00 0.00 34 1012.7
20171214214801 86 210 2.0 3.0 0.00 0.00 0.00 33 1012.7
20171214213901 87 204 3.0 3.0 0.00 0.00 0.00 32 1012.7
20171214213001 87 188 0.0 5.0 0.00 0.00 0.00 32 1012.7
20171214212101 88 195 3.0 4.0 0.00 0.00 0.00 31 1012.7
20171214211201 88 210 4.0 4.0 0.00 0.00 0.00 31 1012.7
20171214210301 88 201 4.0 4.0 0.00 0.00 0.00 31 1012.7
20171214205401 89 203 2.0 6.0 0.00 0.00 0.00 30 1012.7
20171214204501 89 214 5.0 6.0 0.00 0.00 0.00 30 1012.7
20171214203601 90 201 4.0 5.0 0.00 0.00 0.00 29 1012.7
20171214202701 90 210 1.0 6.0 0.00 0.00 0.00 29 1012.7
20171214201801 91 179 3.0 6.0 0.00 0.00 0.00 28 1012.7
20171214200901 93 186 1.0 5.0 0.00 0.00 0.00 28 1012.7
20171214200001 94 185 0.0 6.0 0.00 0.00 0.00 28 1012.7
20171214195101 94 195 2.0 6.0 0.00 0.00 0.00 27 1012.7
20171214194201 95 175 2.0 4.0 0.00 0.00 0.00 27 1012.7
20171214193301 95 160 0.0 7.0 0.00 0.00 0.00 27 1012.7
20171214192401 95 121 4.0 4.0 0.00 0.00 0.00 27 1012.7
20171214191502 96 136 0.0 5.0 0.00 0.00 0.00 27 1012.7
20171214190601 96 140 4.0 4.0 0.00 0.00 0.00 27 1012.7
20171214185701 95 131 4.0 4.0 0.00 0.00 0.00 27 1012.7
20171214184801 96 199 2.0 5.0 0.00 0.00 0.00 27 1013.8
20171214183903 96 155 0.0 8.0 0.00 0.00 0.00 27 1013.8
20171214183001 97 183 4.0 6.0 0.00 0.00 0.00 27 1013.8
20171214182101 97 174 4.0 6.0 0.00 0.00 0.00 27 1013.8
20171214181201 99 189 3.0 3.0 0.00 0.00 0.00 26 1013.8
20171214180301 97 128 2.0 4.0 0.00 0.00 0.00 27 1013.8
20171214175401 97 105 2.0 6.0 0.00 0.00 0.00 26 1014.9
20171214174502 97 154 0.0 6.0 0.00 0.00 0.00 27 1014.9
20171214173602 99 231 0.0 6.0 0.00 0.00 0.00 27 1014.9
20171214172702 97 176 5.0 5.0 0.00 0.00 0.00 28 1014.9
20171214171802 96 153 2.0 6.0 0.00 0.00 0.00 28 1014.9
20171214170902 93 142 4.0 6.0 0.00 0.00 0.00 28 1014.9
20171214170002 98 155 2.0 6.0 0.00 0.00 0.00 28 1014.9
20171214165101 96 174 3.0 6.0 0.00 0.00 0.00 28 1014.9
20171214164202 96 77 3.0 3.0 0.00 0.00 0.00 28 1014.9
20171214163302 100 105 3.0 6.0 0.00 0.00 0.00 26 1015.9
20171214162402 100 185 2.0 5.0 0.00 0.00 0.00 27 1015.9
20171214161502 99 152 2.0 5.0 0.00 0.00 0.00 28 1015.9
20171214160602 98 177 0.0 5.0 0.00 0.00 0.00 29 1015.9
20171214155702 98 6 3.0 5.0 0.00 0.00 0.00 30 1015.9
20171214154802 95 187 5.0 5.0 0.00 0.00 0.00 32 1015.9
20171214153902 95 343 1.0 8.0 0.00 0.00 0.00 33 1015.9
20171214153002 91 210 3.0 6.0 0.00 0.00 0.00 35 1015.9
20171214152102 90 84 2.0 3.0 0.00 0.00 0.00 35 1015.9
20171214151202 91 127 2.0 4.0 0.00 0.00 0.00 34 1015.9
20171214150302 92 16 3.0 6.0 0.00 0.00 0.00 33 1015.9
20171214145402 94 21 3.0 6.0 0.00 0.00 0.00 31 1017.0
20171214144502 98 86 3.0 4.0 0.00 0.00 0.00 30 1017.0
20171214143602 98 286 0.0 4.0 0.00 0.00 0.00 31 1017.0
20171214142702 97 244 4.0 7.0 0.00 0.00 0.00 31 1017.0
20171214141802 97 12 2.0 4.0 0.00 0.00 0.00 32 1017.0
20171214140902 94 16 3.0 4.0 0.00 0.00 0.00 35 1017.0
20171214140002 93 2 4.0 6.0 0.00 0.00 0.00 34 1017.0
20171214135102 98 89 1.0 4.0 0.00 0.00 0.00 32 1017.0
20171214134202 97 96 4.0 4.0 0.00 0.00 0.00 33 1017.0
20171214133302 96 14 3.0 6.0 0.00 0.00 0.00 34 1017.0
20171214132402 95 212 2.0 4.0 0.00 0.00 0.00 35 1017.0
20171214131502 95 102 4.0 5.0 0.00 0.00 0.00 37 1017.0
20171214130602 93 19 5.0 6.0 0.00 0.00 0.00 37 1017.0
20171214125702 93 37 0.0 4.0 0.00 0.00 0.00 39 1017.0
20171214124802 92 30 4.0 5.0 0.00 0.00 0.00 39 1017.0
20171214123902 90 354 4.0 5.0 0.00 0.00 0.00 40 1017.0
20171214123002 92 39 5.0 5.0 0.00 0.00 0.00 40 1017.0
20171214122102 89 54 3.0 5.0 0.00 0.00 0.00 41 1017.0
20171214121202 89 26 3.0 8.0 0.00 0.00 0.00 42 1017.0
20171214120302 89 29 6.0 8.0 0.00 0.00 0.00 41 1017.0
20171214115402 89 6 4.0 6.0 0.00 0.00 0.00 42 1017.0
20171214114502 89 2 2.0 4.0 0.00 0.00 0.00 43 1017.0
20171214113602 87 9 3.0 6.0 0.00 0.00 0.00 44 1017.0
20171214112702 87 30 3.0 4.0 0.00 0.00 0.00 46 1017.0
20171214111802 86 76 4.0 4.0 0.00 0.00 0.00 50 1017.0
20171214110902 84 53 3.0 5.0 0.00 0.00 0.00 50 1017.0
20171214110002 84 359 5.0 5.0 0.00 0.00 0.00 52 1017.0
20171214105103 83 93 2.0 4.0 0.00 0.00 0.00 54 1017.0
20171214104203 82 147 0.0 3.0 0.00 0.00 0.00 58 1017.0
20171214103302 80 126 2.0 4.0 0.00 0.00 0.00 62 1017.0
20171214102402 79 127 2.0 4.0 0.00 0.00 0.00 63 1017.0
20171214101503 77 153 4.0 4.0 0.00 0.00 0.00 64 1017.0
20171214100602 76 143 1.0 3.0 0.00 0.00 0.00 66 1017.0
20171214095703 75 151 2.0 3.0 0.00 0.00 0.00 69 1017.0
20171214094803 74 144 2.0 4.0 0.00 0.00 0.00 71 1017.0
20171214093903 74 145 4.0 4.0 0.00 0.00 0.00 73 1017.0
20171214093003 74 121 0.0 2.0 0.00 0.00 0.00 76 1017.0
20171214092103 72 146 0.0 3.0 0.00 0.00 0.00 80 1015.9
20171214091202 71 77 0.0 2.0 0.00 0.00 0.00 83 1015.9
20171214090302 70 110 1.0 2.0 0.00 0.00 0.00 87 1015.9
20171214085402 68 112 2.0 3.0 0.00 0.00 0.00 87 1015.9
20171214084503 68 103 2.0 3.0 0.00 0.00 0.00 88 1015.9
20171214083603 68 114 1.0 3.0 0.00 0.00 0.00 90 1015.9
20171214082703 67 127 2.0 3.0 0.00 0.00 0.00 90 1015.9
20171214081802 67 154 3.0 4.0 0.00 0.00 0.00 90 1015.9
20171214080902 67 116 1.0 4.0 0.00 0.00 0.00 90 1015.9
20171214080003 67 139 3.0 4.0 0.00 0.00 0.00 90 1015.9
20171214075103 67 155 2.0 4.0 0.00 0.00 0.00 90 1015.9
20171214074203 67 161 0.0 4.0 0.00 0.00 0.00 90 1015.9
20171214073303 67 150 4.0 6.0 0.00 0.00 0.00 90 1015.9
20171214072403 67 141 3.0 6.0 0.00 0.00 0.00 89 1015.9
20171214071503 67 155 0.0 3.0 0.00 0.00 0.00 89 1015.9
20171214070603 67 131 2.0 4.0 0.00 0.00 0.00 89 1015.9
20171214065704 67 158 0.0 2.0 0.00 0.00 0.00 89 1015.9
20171214064803 67 111 0.0 1.0 0.00 0.00 0.00 88 1015.9
20171214063903 67 0 0.0 0.0 0.00 0.00 0.00 89 1015.9